MST,Max TemperatureF,Mean TemperatureF,Min TemperatureF,Max Dew PointF,MeanDew PointF,Min DewpointF,Max Humidity, Mean Humidity, Min Humidity, Max Sea Level PressureIn, Mean Sea Level PressureIn, Min Sea Level PressureIn, Max VisibilityMiles, Mean VisibilityMiles, Min VisibilityMiles, Max Wind SpeedMPH, Mean Wind SpeedMPH, Max Gust SpeedMPH,PrecipitationIn, CloudCover, Events, WindDirDegrees
2011-11-1,46,36,24,32,27,19,92,72,47,30.43,30.19,30.02,10,10,10,16,9,,0.00,2,Rain,304
2011-11-2,46,29,12,21,15,10,88,57,29,30.53,30.41,30.23,10,10,10,18,6,24,0.00,0,,227
2011-11-3,57,34,12,20,12,5,84,46,12,30.20,29.97,29.75,10,10,8,21,8,28,0.00,0,,156
2011-11-4,59,38,19,24,21,15,81,52,24,29.76,29.66,29.50,10,10,10,12,4,,0.00,0,,115
2011-11-5,36,32,26,28,24,20,93,76,54,29.56,29.48,29.38,10,8,2,24,10,34,0.00,5,Snow,300
2011-11-6,34,28,21,25,21,15,93,78,48,30.05,29.69,29.51,10,6,2,32,22,44,0.00,5,Snow,284
2011-11-7,42,26,9,19,14,4,88,67,34,30.24,30.17,30.10,10,10,10,17,6,22,0.00,0,,261
2011-11-8,45,28,12,21,17,8,84,64,36,30.36,30.21,30.13,10,10,10,24,7,31,0.00,0,,273
2011-11-9,39,26,14,24,16,11,88,68,36,30.50,30.43,30.36,10,10,10,12,6,,0.00,1,,288
2011-11-10,51,32,12,24,17,8,84,52,27,30.33,30.01,29.75,10,10,10,22,7,29,0.00,0,,259
2011-11-11,60,44,27,19,16,12,61,40,16,29.78,29.63,29.43,10,10,10,20,11,24,0.00,0,,255
2011-11-12,53,40,26,30,23,12,78,54,31,29.38,29.35,29.32,10,10,10,21,7,29,0.00,4,,284
2011-11-13,46,40,32,30,26,20,82,67,34,29.45,29.36,29.29,10,10,10,24,14,31,0.00,4,,258
2011-11-14,42,35,28,28,26,22,93,80,51,29.59,29.49,29.44,10,10,10,23,13,30,0.00,3,,252
2011-11-15,30,22,15,25,14,5,86,65,40,30.13,29.90,29.57,10,10,9,23,16,32,0.00,3,,284
2011-11-16,33,22,12,12,6,0,77,56,28,30.31,30.23,30.13,10,10,10,20,11,31,0.00,2,,271
2011-11-17,46,28,10,22,11,1,67,42,28,30.15,29.77,29.58,10,10,10,20,7,34,0.00,5,,194
2011-11-18,37,22,6,20,11,1,80,64,34,30.00,29.80,29.62,10,10,10,17,11,,0.00,5,,330
2011-11-19,9,0,-11,3,-1,-15,88,79,72,30.25,30.05,29.86,10,5,0,13,8,,0.04,7,Snow,73
2011-11-20,34,12,-9,18,2,-13,87,74,50,30.22,30.16,30.09,10,10,10,9,6,,0.00,0,,123
2011-11-21,39,20,1,28,13,-2,92,79,54,30.14,30.06,29.99,10,10,10,12,5,,0.00,0,,119
2011-11-22,48,31,14,31,22,12,92,65,41,30.06,29.98,29.90,10,10,10,15,5,,0.00,0,,207
2011-11-23,64,50,35,30,27,25,70,48,25,29.96,29.83,29.71,10,10,10,16,10,18,0.00,0,,214
2011-11-24,54,40,27,30,26,23,85,56,35,29.77,29.71,29.66,10,10,10,17,6,,0.00,0,,245
2011-11-25,51,36,21,32,25,19,92,73,38,30.17,29.83,29.67,10,10,10,22,8,31,0.00,1,Rain,286
2011-11-26,37,27,17,24,12,7,81,54,30,30.53,30.46,30.21,10,10,10,24,16,34,0.00,0,,294
2011-11-27,54,36,19,25,19,11,74,45,25,30.37,30.13,29.87,10,10,10,17,6,20,0.00,0,,240
2011-11-28,46,32,19,31,22,14,85,58,39,30.42,30.23,29.86,10,10,10,17,12,24,0.00,1,,307
2011-11-29,48,34,21,28,24,18,88,67,44,30.33,30.17,29.96,10,10,10,17,7,,0.00,2,,201
2011-11-30,44,34,24,35,26,19,96,83,57,30.52,30.13,29.84,10,6,2,21,10,29,0.01,7,Rain-Snow,56